This demonstration page uses our WeatherBlox Daily Observations layout. Learn more.

Left ArrowRight Arrow

Hourly Observations for September 26, 2022

Temp ( °F °C ) Dew Point ( °F °C ) Humidity (%) Winds ( mph kmh ) Pressure ( in mb ) Visibility ( mi km ) Precip ( " mm )
12:52 am 00:52 Clear 49 9.4 40 4.4 71 71 N 5 7 30.11 1020 10 16 0.00 0.00
1:52 am 01:52 Clear 50 10 40 4.4 68 68 Calm 30.12 1020 10 16 0.00 0.00
2:52 am 02:52 Clear 47 8.3 39 3.9 74 74 NNW 3 6 30.12 1020 10 16 0.00 0.00
3:52 am 03:52 Clear 45 7.2 39 3.9 80 80 Calm 30.13 1020 10 16 0.00 0.00
4:52 am 04:52 Mostly Clear 46 7.8 39 3.9 76 76 N 3 6 30.14 1021 10 16 0.00 0.00
5:52 am 05:52 Mostly Clear 46 7.8 39 3.9 76 76 Calm 30.16 1021 10 16 0.00 0.00
6:52 am 06:52 Mostly Clear 45 7.2 40 4.4 82 82 Calm 30.16 1022 10 16 0.00 0.00
7:52 am 07:52 Partly Cloudy 44 6.7 40 4.4 85 85 Calm 30.20 1023 10 16 0.00 0.00
8:52 am 08:52 Partly Cloudy 51 10.6 41 5 68 68 Calm 30.20 1023 10 16 0.00 0.00
9:52 am 09:52 Partly Cloudy 56 13.3 42 5.6 60 60 Calm 30.20 1023 10 16 0.00 0.00
10:52 am 10:52 Mostly Sunny 64 17.8 39 3.9 40 40 WNW 8 13 30.19 1023 10 16 0.00 0.00
11:52 am 11:52 Mostly Sunny 68 20 36 2.2 31 31 NW 12 19 30.18 1022 10 16 0.00 0.00
12:52 pm 12:52 Partly Cloudy 72 22.2 37 2.8 28 28 NW 14 22 30.16 1022 10 16 0.00 0.00
1:52 pm 13:52 Partly Cloudy 74 23.3 37 2.8 26 26 NW 13 20 30.14 1021 10 16 0.00 0.00
2:52 pm 14:52 Partly Cloudy 74 23.3 36 2.2 25 25 NW 9 15 30.11 1020 10 16 0.00 0.00
3:52 pm 15:52 Partly Cloudy 76 24.4 36 2.2 23 23 NNW 14 22 30.09 1019 10 16 0.00 0.00
4:52 pm 16:52 Partly Cloudy 76 24.4 37 2.8 24 24 W 8 13 30.09 1019 10 16 0.00 0.00
5:52 pm 17:52 Mostly Cloudy 75 23.9 37 2.8 25 25 N 9 15 30.07 1018 10 16 0.00 0.00
6:52 pm 18:52 Mostly Cloudy 69 20.6 40 4.4 34 34 NNW 5 7 30.08 1019 10 16 0.00 0.00
7:52 pm 19:52 Partly Cloudy 62 16.7 46 7.8 56 56 NNE 5 7 30.09 1019 10 16 0.00 0.00
8:52 pm 20:52 Partly Cloudy 60 15.6 45 7.2 57 57 Calm 30.09 1019 10 16 0.00 0.00
9:52 pm 21:52 Mostly Cloudy 57 13.9 47 8.3 69 69 Calm 30.09 1019 10 16 0.00 0.00
10:52 pm 22:52 Mostly Cloudy 55 12.8 47 8.3 74 74 Calm 30.10 1019 10 16 0.00 0.00
11:52 pm 23:52 Clear 55 12.8 45 7.2 69 69 Calm 30.09 1019 10 16 0.00 0.00

Powered by AerisWeather